TAURUS R/B

Satellite information

Favourite Embed

Satellite Type and Status

ROCKET BODYIN ORBIT

Key statistics

Satellite TAURUS R/B at a glance.

Uptime

9715

Days in orbit

Revolutions

≈ 14.7

Per day

Orbit

LEO

Low Earth Orbit

Inclination

85.1

Latest

Satellite identification and parameters

Extended collection of information and parameters for TAURUS R/B.

Object identification

Identified? True

Debris? False

Object name: TAURUS R/B

International designator: 1998-055B

Object number (NORAD): 25490

Object ID (CCSDS): 25490

Country: UNITED STATES OF AMERICA (US)

Current information (Y/N): Y

RCS size: LARGE

Orbital parameters

Period: 97.881 minutes

Inclination: 85.0656 deg

SMA: 7035.473 km

Apoapsis: 668.13 km

Periapsis: 646.545 km

RAAN: 130.5046 deg

Eccentricy: 0.001534

Argument of periapsis: 164.93 deg

Mean anomaly: 195.2374 deg

Mean motion: 14.71169965 rev/day

Mean motion (dot): 0.00000785 rev/day2

B* drag term: 0.0001232 1/REarth

Two-line elements (TLE)

Creation date: May 8, 2025, 3:01 a.m.

Reference frame: TEME

Reference center: EARTH

Epoch: May 7, 2025, 6:16 p.m. UTC

TLE line 0: 0 TAURUS R/B

TLE line 1: 1 25490U 98055B 25127.76137864 .00000785 00000-0 12320-3 0 9997

TLE line 2: 2 25490 85.0656 130.5046 0015340 164.9300 195.2374 14.71169965425334

Live tracking on map

Real-time ground track for satellite TAURUS R/B.

In-orbit conjunctions

A list of the most updated potential collisions computed for object TAURUS R/B.

Target Orbit TCA Probability of collision Miss distance Type
CZ-6A DEB SSO 2024-12-01 22:37:08 0.0001083909 372.0 (m) DEBRIS
SL-8 DEB * LEO 2024-11-15 18:06:11 0.0001610285 862.0 (m) DEBRIS
CZ-6A DEB SSO 2024-05-31 03:33:06 0.0001280146 464.0 (m) DEBRIS

Associated space launch

The STEX (Space Technology Experiments) satellite carried 29 new technologies intended to result in lower cost and higher performance spacecraft for future missions.

TAURUS R/B was lifted into orbit during the mission ‘Minotaur | NROL-8’, on board a Minotaur space rocket.

The launch took place on Oct. 3, 1998, 10:04 a.m. from Space Launch Complex 576E.

For more information about the launch, click the button.

Launch to space Minotaur | NROL-8
Minotaur | NROL-8

Agency: N/A

Status: Launch Successful

Launch date: Oct. 3, 1998, 10:04 a.m. UTC

Rocket: Minotaur

Launch pad: Space Launch Complex 576E

Location: Vandenberg SFB, CA, USA

...

Latest news about this satellite

There are no fresh news available about this satellite. Check back as we update our databases every day.


Newsletter sign-up

Weekly statistics, charts and insights to help you stay on top of the space industry.